Groton, CT

2:50 AM EDT on May 29, 2017 (GMT -0400)
Groton-New London

Weather History for KGON - July, 2013

Change the Weather History Date:

Saturday, July 20, 2013

  Actual Average Record
Temperature  
Mean Temperature 81 °F -  
Max Temperature 89 °F 81 °F 97 °F (1991)
Min Temperature 75 °F 64 °F 52 °F (1965)
Cooling Degree Days 16    
Growing Degree Days 31 (Base 50)    
Moisture  
Dew Point 71 °F    
Average Humidity 74    
Maximum Humidity 89    
Minimum Humidity 55    
Precipitation  
Precipitation 0.00 in - - ()
Sea Level Pressure  
Sea Level Pressure 29.76 in    
Wind  
Wind Speed 7 mph (SW)    
Max Wind Speed 14 mph    
Max Gust Speed 22 mph    
Visibility 5 miles    
Events      
Averages and records for this station are not official NWS values.
T = Trace of Precipitation, MM = Missing Value Source: NWS Daily Summary

Daily Weather History Graph

Daily Weather History Graph

Search for Another Location

Airport or City:

Trip Planner

Search our weather history database for the weather conditions in past years. The results will help you decide how hot, cold, wet, or windy it might be!

Date:

Astronomy

Jul. 20, 2013 Rise Set
Actual Time 5:32 AM EDT 8:16 PM EDT
Civil Twilight 5:00 AM EDT 8:48 PM EDT
Nautical Twilight 4:19 AM EDT 9:28 PM EDT
Astronomical Twilight 3:33 AM EDT 10:15 PM EDT
Moon 6:16 PM EDT (7/20) 3:09 AM EDT (7/20)
Length of Visible Light 15h 48m
Length of Day
14h 43m
Waxing Gibbous, 93% of the Moon is Illuminated
Jul 20
Waxing Gibbous
Jul 22
Full
Jul 29
Last Quarter
Aug 6
New
Aug 14
First Quarter

Hourly Weather History & Observations

Time (EDT) Temp. Heat Index Dew Point Humidity Pressure Visibility Wind Dir Wind Speed Gust Speed Precip Events Conditions
12:56 AM 82.0 °F 87.4 °F 73.0 °F 74% 29.79 in 5.0 mi WSW 8.1 mph - N/A   Haze
1:56 AM 80.1 °F 83.8 °F 72.0 °F 76% 29.78 in 5.0 mi WSW 9.2 mph - N/A   Haze
2:56 AM 81.0 °F 85.8 °F 73.0 °F 77% 29.77 in 5.0 mi WSW 6.9 mph - N/A   Haze
3:56 AM 79.0 °F - 72.0 °F 79% 29.76 in 4.0 mi SW 6.9 mph - N/A   Haze
4:56 AM 75.9 °F - 71.1 °F 85% 29.75 in 4.0 mi SSW 4.6 mph - N/A   Haze
5:39 AM 75.2 °F - 71.6 °F 89% 29.75 in 2.5 mi SW 3.5 mph - N/A   Clear
5:56 AM 75.0 °F - 71.1 °F 87% 29.75 in 2.0 mi South 4.6 mph - N/A   Clear
6:16 AM 75.2 °F - 71.6 °F 89% 29.76 in 1.8 mi Calm Calm - N/A   Clear
6:49 AM 75.2 °F - 71.6 °F 89% 29.76 in 2.0 mi South 4.6 mph - 0.00 in   Haze
6:56 AM 75.0 °F - 71.1 °F 87% 29.77 in 3.0 mi SSW 3.5 mph - 0.00 in   Partly Cloudy
7:03 AM 75.2 °F - 71.6 °F 89% 29.76 in 1.8 mi South 4.6 mph - N/A   Clear
7:11 AM 75.2 °F - 71.6 °F 89% 29.77 in 2.0 mi SSW 4.6 mph - N/A   Haze
7:46 AM 80.6 °F 84.6 °F 71.6 °F 74% 29.78 in 3.0 mi SW 6.9 mph - N/A   Haze
7:56 AM 80.1 °F 83.8 °F 72.0 °F 76% 29.78 in 3.0 mi SW 5.8 mph - N/A   Haze
8:56 AM 81.0 °F 85.2 °F 72.0 °F 74% 29.78 in 4.0 mi WSW 10.4 mph - N/A   Haze
9:56 AM 84.0 °F 89.6 °F 72.0 °F 67% 29.75 in 4.0 mi SW 10.4 mph - N/A   Haze
10:56 AM 87.1 °F 92.8 °F 71.1 °F 59% 29.76 in 5.0 mi West 10.4 mph 18.4 mph N/A   Haze
11:56 AM 84.9 °F 89.4 °F 70.0 °F 61% 29.74 in 6.0 mi SW 12.7 mph - N/A   Haze
12:56 PM 84.0 °F 88.4 °F 70.0 °F 63% 29.73 in 6.0 mi SSW 12.7 mph 21.9 mph N/A   Haze
1:56 PM 84.9 °F 89.4 °F 70.0 °F 61% 29.71 in 5.0 mi SW 13.8 mph - N/A   Haze
2:56 PM 87.1 °F 92.8 °F 71.1 °F 59% 29.71 in 5.0 mi SW 9.2 mph - N/A   Haze
3:56 PM 87.1 °F 93.6 °F 72.0 °F 61% 29.69 in 5.0 mi SW 10.4 mph - N/A   Haze
4:56 PM 82.9 °F 88.0 °F 72.0 °F 69% 29.71 in 5.0 mi SW 9.2 mph - N/A   Haze
5:56 PM 86.0 °F 89.4 °F 68.0 °F 55% 29.72 in 8.0 mi WSW 4.6 mph - N/A   Partly Cloudy
6:56 PM 82.0 °F 85.5 °F 69.1 °F 65% 29.73 in 8.0 mi SSW 5.8 mph - N/A   Clear
7:56 PM 79.0 °F - 69.1 °F 72% 29.75 in 7.0 mi WSW 6.9 mph - N/A   Clear
8:56 PM 79.0 °F - 71.1 °F 77% 29.78 in 6.0 mi WSW 8.1 mph - N/A   Haze
9:56 PM 80.1 °F 83.2 °F 70.0 °F 71% 29.80 in 8.0 mi West 4.6 mph - N/A   Clear
10:56 PM 80.1 °F 82.9 °F 69.1 °F 69% 29.81 in 9.0 mi Calm Calm - N/A   Scattered Clouds
11:56 PM 77.0 °F - 68.0 °F 74% 29.83 in 9.0 mi Calm Calm - N/A   Partly Cloudy